This is the latest recevied weather packets stored in our database for station/object N3FU-13. If no packets are shown the sender has not sent any weather packets the latest 10 day(s).
| Time | Temp. | Humidity | Pressure | Rain* | Wind** | Luminosity | Snow |
|---|---|---|---|---|---|---|---|
| 1777872428 | 21.11° C | 81% | 1016.1 hPa | 0 mm | - | - | - |
| 1777871528 | 21.67° C | 81% | 1016.3 hPa | 0 mm | - | - | - |
| 1777870628 | 21.67° C | 80% | 1016.3 hPa | 0 mm | - | - | - |
| 1777869728 | 22.22° C | 80% | 1016.5 hPa | 0 mm | - | - | - |
| 1777868828 | 22.22° C | 79% | 1016.5 hPa | 0 mm | - | - | - |
| 1777867928 | 22.22° C | 79% | 1016.8 hPa | 0 mm | - | - | - |
| 1777867028 | 22.22° C | 78% | 1017 hPa | 0 mm | - | - | - |
| 1777866128 | 22.78° C | 77% | 1016.9 hPa | 0 mm | - | - | - |
| 1777865228 | 22.78° C | 77% | 1017 hPa | 0 mm | - | - | - |
| 1777864328 | 23.33° C | 77% | 1016.9 hPa | 0 mm | - | - | - |
| 1777863428 | 23.33° C | 76% | 1016.7 hPa | 0 mm | - | - | - |
| 1777862528 | 23.33° C | 77% | 1016.7 hPa | 0 mm | - | - | - |
| 1777861628 | 23.33° C | 77% | 1016.5 hPa | 0 mm | - | - | - |
| 1777860728 | 22.78° C | 74% | 1016.4 hPa | 0 mm | - | - | - |
| 1777859828 | 22.78° C | 73% | 1016 hPa | 0 mm | - | - | - |
| 1777858928 | 22.78° C | 73% | 1015.9 hPa | 0 mm | - | - | - |
| 1777858028 | 22.78° C | 73% | 1015.9 hPa | 0 mm | - | - | - |
| 1777857128 | 23.33° C | 72% | 1015.8 hPa | 0 mm | - | - | - |
| 1777856228 | 23.33° C | 72% | 1015.5 hPa | 0 mm | - | - | - |
| 1777855328 | 23.33° C | 71% | 1015.3 hPa | 0 mm | - | - | - |
| 1777854428 | 23.89° C | 70% | 1015.3 hPa | 0 mm | - | - | - |
| 1777853528 | 24.44° C | 69% | 1015 hPa | 0 mm | - | - | - |
| 1777852886 | 25.56° C | 65% | 1014.8 hPa | 0 mm | - | - | - |
| 1777852628 | 25° C | 67% | 1015 hPa | 0 mm | - | - | - |
| 1777851728 | 25.56° C | 65% | 1014.8 hPa | 0 mm | - | - | - |
* Rain latest hour (hover to see other rain measurements)
** Current wind speed in m/s (hover to see current wind gust speed)